Location: T�chigga el Be�da
(16.4766°N, 9.3887°W)
Time: 10:06:23
(UTC+00:00)

CZ-3 Stage 3 - Pass Details

Date: 27 February 2020
Orbit: 231 x 15967 km, 30.8° (Epoch: 28 March)

Event Time Altitude Azimuth Distance (km) Brightness Sun altitude
Rises 21:37:58 0° 231° (SW) 3,619 6.0 -42.4°
Reaches altitude 10° 21:39:31 10° 228° (SW) 3,107 5.5 -42.8°
Enters shadow 21:45:04 63° 200° (SSW) 2,361 4.2 -44.1°
Exits shadow 22:21:42 21° 64° (ENE) 11,983 7.6 -52.9°
Drops below altitude 10° 22:50:04 10° 64° (ENE) 17,016 8.5 -59.6°
Sets 23:33:32 0° 67° (ENE) 21,144 9.2 -69.6°
